www.pogodaiklimat.ru

Погода и климат >> Архив погоды >> Россия >> Камчатский край >> Остров Беринга


АРХИВ ПОГОДЫ на Острове Беринга

Время (UTC), дата Ветер
(напр.,м/с)
 
Видим.   Явления Облачность Т
(С)
Тd
(С)
f
(%)
Тe
(С)
Тes
(С)
Комфортность P
(гПа)
Po
(гПа)
Тmin
(С)
Tmax
(С)
R
(мм)
R24
(мм)
S
(см)
21 14.03 СВ 3 20 км 5/5 600 м
[Sc]
-7.1 -10.1 79 -13 -12 1002.4 1000.1 -8.7 0.0 35
00 15.03 С 7-10
{11}
4000 м слаб. ливневой снег 9/8 300 м
[Cb cap Cs]
-5.4 -6.1 95 -14 -14 1002.9 1000.7
03 15.03 С 7
{12}
20 км {ливн. осадки} 8/4 600 м
[Sc Ci]
-5.8 -9.7 74 -14 -13 1003.6 1001.3
06 15.03 С 6 10 км слаб. ливневой снег 9/8 600 м
[Cb cap Ci]
-6.9 -7.9 93 -15 -15 1004.6 1002.3
09 15.03 С 6
{10}
20 км {ливн. осадки} 8/8 600 м
[Sc]
-7.3 -11.8 70 -15 -15 1006.4 1004.1 -4.5 0.5
12 15.03 СЗ 5 20 км {ливн. осадки} 8/8 600 м
[Sc]
-7.1 -13.5 60 -14 -14 1007.9 1005.6
15 15.03 С 5 20 км 6/6 600 м
[Sc]
-7.4 -11.1 75 -15 -15 1008.5 1006.2
18 15.03 СЗ 5 20 км 5/5 600 м
[Sc]
-7.4 -13.4 62 -15 -15 1009.7 1007.4
21 15.03 С 4 20 км 6/4 600 м
[Sc Ci fib]
-7.4 -13.8 60 -14 -13 1011.0 1008.7 -7.7 36
00 16.03 СЗ 3 20 км 10/10 600 м
[Sc]
-6.6 -12.1 65 -12 -12 1011.8 1009.5
03 16.03 СЗ 4 20 км 8/8 600 м
[Sc]
-5.8 -12.5 59 -12 -11 1011.4 1009.4
06 16.03 СЗ 3 20 км 8/8 600 м
[Sc]
-5.9 -12.2 61 -11 -11 1012.1 1009.8
09 16.03 СВ 2 20 км 8/8 600 м
[Sc]
-7.1 -11.4 71 -11 -11 1012.9 1010.7 -5.5
12 16.03 СВ 2 20 км 10/10 600 м
[Sc]
-7.0 -10.5 76 -11 -11 1013.4 1011.0
15 16.03 С 1 20 км 10/10 600 м
[Sc]
-6.8 -10.3 76 -9 -9 1013.5 1011.2
18 16.03 СВ 2 20 км 10/10 600 м
[Sc]
-8.1 -12.1 73 -12 -12 1012.7 1010.4
21 16.03 СВ 1 20 км 8/8 600 м
[Sc]
-7.3 -10.5 78 -10 -9 1012.9 1010.6 -8.6 35
00 17.03 СВ 1 20 км 8/5 600 м
[Sc Ci]
-4.5 -13.2 51 -6 -3 1012.5 1010.2
03 17.03 СВ 2 20 км 10/3 600 м
[Sc As trans]
-4.2 -11.0 59 -8 -6 1010.8 1008.5
06 17.03 В 3 20 км 10/3 600 м
[Sc As trans]
-4.7 -9.7 68 -10 -10 1009.4 1007.1
09 17.03 В 3 20 км 8/8 600 м
[Sc]
-6.2 -9.2 79 -12 -12 1009.0 1006.7 -4.1
12 17.03 В 5 20 км {ливн. осадки} 6/6 600 м
[Cb cap]
-6.3 -8.2 86 -14 -14 1007.8 1005.5
15 17.03 В 6 20 км 9/9 600 м
[Sc]
-5.8 -8.2 83 -14 -14 1006.1 1003.8
18 17.03 В 7-10
{10}
20 км 10/10 600 м
[Sc]
-4.6 -7.6 80 -13 -13 1004.8 1002.5
21 17.03 Ю 10-13
{13}
4000 м слаб. ливневой снег {метель} 10/10 300 м
[Cb cap]
-2.1 -4.5 84 -11 -11 1003.8 1001.6 -6.7 0.0 34
00 18.03 ЮЗ 9-11
{14}
20 км сильный позёмок {ливн. осадки} 8/8 600 м
[Sc]
-1.6 -4.7 79 -10 -10 1003.2 1001.0
03 18.03 З 7
{11}
20 км {метель} 6/6 600 м
[Cu med, cong]
-2.4 -5.0 82 -10 -9 1003.3 1001.0
06 18.03 З 6
{10}
20 км {метель} 8/6 600 м
[Sc Ci fib]
-2.8 -7.8 68 -10 -10 1003.6 1001.3
09 18.03 З 4 20 км 8/8 600 м
[Sc]
-3.0 -7.7 70 -9 -9 1004.3 1002.0 -1.5 0.2
12 18.03 З 3 20 км 8/8 600 м
[Sc]
-2.6 -7.5 69 -7 -7 1004.3 1002.0
15 18.03 СВ 1 20 км 6/6 600 м
[Sc]
-5.2 -6.2 93 -8 -8 1004.4 1002.1
18 18.03 В 2 20 км 9/9 600 м
[Sc]
-5.7 -6.1 97 -10 -10 1005.0 1002.7
21 18.03 В 4 20 км 4/3 600 м
[Cu hum Ci fib]
-4.2 -6.7 83 -10 -10 1005.6 1003.3 -8.2 34
00 19.03 ЮВ 2 20 км 8/3 600 м
[Cu med, cong Cs]
-1.9 -6.7 70 -6 -1 1005.7 1003.4
03 19.03 Ю 6 20 км 3/1 600 м
[Cu hum Ci fib]
-0.8 -7.7 59 -7 -5 1004.7 1002.4
06 19.03 Ю 7
{14}
20 км {ливн. осадки} 8/5 600 м
[Cu med, cong Ci fib]
-0.8 -4.1 78 -8 -8 1004.0 1001.8
09 19.03 ЮЗ 8
{13}
20 км {ливн. осадки} 3/3 600 м
[Sc]
-0.4 -4.7 73 -8 -8 1004.3 1002.1 -0.4 0.0
12 19.03 С 5
{13}
10 км слаб. ливневой снег {метель} 5/5 600 м
[Cb cap]
-3.5 -5.0 89 -10 -10 1005.7 1003.4
15 19.03 СВ 3 20 км {ливн. осадки} 3/3 600 м
[Sc]
-5.6 -7.4 87 -11 -11 1006.3 1004.0
18 19.03 СВ 5 20 км {ливн. осадки} 9/9 600 м
[Sc]
-4.8 -7.7 80 -12 -12 1006.2 1003.9
21 19.03 В 7-10
{10}
10 км слаб. ливневой снег {метель} 8/8 600 м
[Cb cap]
-2.8 -3.7 94 -11 -11 1005.4 1003.1 -6.1 0.2 35
00 20.03 В 5
{13}
10 км слаб. ливневой снег {метель} 9/9 600 м
[Cb cap]
-1.1 -2.1 93 -8 -7 1004.2 1001.9
03 20.03 В 6
{12}
20 км {ливн. осадки, метель} 10/10 600 м
[Sc]
+0.5 -4.1 71 -6 -6 1001.7 999.4
06 20.03 ЮВ 9-15
{15}
10 км слаб. ливневой снег {метель} 10/10 200 м
[Cb cap]
-0.1 -1.0 94 -8 -8 999.8 997.5
09 20.03 В 11-16
{18}
4000 м слаб. ливневой снег 10/10 200 м
[Cb cap]
-0.3 -0.3 100 -9 -9 998.9 996.7 +0.9 0.6
12 20.03 В 12-19
{21}
2000 м слаб. ливневой снег 10/10 200 м
[Cb cap]
-0.1 -0.1 100 -9 -9 997.7 995.5
15 20.03 ЮВ 9-12
{22}
4000 м слаб. ливневой снег 10/10 200 м
[Cb cap]
-0.3 -0.3 100 -9 -9 996.4 994.2
18 20.03 ЮВ 9-12
{12}
4000 м слаб. ливневой снег 10/10 200 м
[Cb cap]
-0.2 -0.2 100 -8 -8 995.3 993.1
21 20.03 ЮВ 7-10
{13}
20 км в посл. час ливневой снег 6/6 600 м
[Cb cap]
-0.4 -0.4 100 -8 -8 996.0 993.8 -1.6 3 49
00 21.03 Ю 9-11
{14}
20 км {ливн. осадки, метель} 8/5 600 м
[Cb cap Ci sp]
0.0 -0.7 95 -8 -8 997.3 995.1
03 21.03 ЮВ 5
{12}
20 км {ливн. осадки} 5/3 600 м
[Cu med, cong Ac trans]
-0.1 -0.9 94 -6 -5 997.5 995.3
06 21.03 В 1 20 км {ливн. осадки} 8/8 600 м
[Cu Sc]
-1.0 -1.6 96 -3 -3 998.5 996.3
09 21.03 ЮВ 5
{11}
20 км {ливн. осадки, метель} 9/9 600 м
[Sc]
-2.4 -5.3 80 -9 -9 1000.9 998.6 -0.0 0.7
12 21.03 В 3 20 км {ливн. осадки} 10/10 600 м
[Sc]
-2.8 -4.6 87 -8 -8 1003.0 1000.8
15 21.03 В 5 20 км 10/10 600 м
[Sc]
-3.4 -5.3 87 -10 -10 1004.6 1002.3
18 21.03 СВ 3 20 км 10/10 600 м
[Sc]
-2.7 -3.5 94 -8 -8 1006.3 1004.0

 

Местоположение метеостанции Остров Беринга (Камчатский край, Россия): широта 55.20 долгота 165.90 высота над уровнем моря 18 м.

В архиве по умолчанию представлена погода на Острове Беринга за последнюю неделю. Архивные данные за месяц целиком и за предыдущие месяцы, начиная с января 2011 года, Вы можете получить, выбрав интересующий диапазон дат из раскрывающегося списка и нажав кнопку "Ввод!".


*Определитесь, кто Вы:
робот инопланетянин человек

Внимание! Время в таблицах - всемирное. Для получения местного времени необходимо прибавить поправку, которая равна 12 ч.

Смотрите также архив погоды в соседних городах и на ближайших метеорологических станциях:

Погода на Мысе Африка (Камчатский край, Россия) (196 км)
Погода в Усть-Камчатске (Камчатский край, Россия) (230 км)
Погода на Мысе Озерном (Камчатский край, Россия) (319 км)
Погода в Ключах (Камчатский край, Россия) (343 км)
Погода в Козыревске (Камчатский край, Россия) (394 км)
Погода в Семячике (Камчатский край, Россия) (404 км)
Погода в Долиновке (Камчатский край, Россия) (438 км)
Погода в Эссо (Камчатский край, Россия) (460 км)
Погода в Мильково (Камчатский край, Россия) (476 км)
Погода в Оссоре (Камчатский край, Россия) (481 км)

Пояснения к столбцам:

Ветер - указаны скорость ветра в м/с - средняя за 10 мин, порывы в срок и между сроками (в фигурных скобках) и направление, откуда дует ветер: С - северный, СВ - северо-восточный, В - восточный, ЮВ - юго-восточный, Ю - южный, ЮЗ - юго-западный, З - западный, СЗ - северо-западный.
Видимость - горизонтальная дальность видимости в метрах или километрах. При видимости от 1 до 10 км при отсутствии осадков обычно наблюдается дымка, при ухудшении видимости до 1 км и менее - туман. В сухую погоду видимость может ухудшаться дымом, пылью или мглою.
Явления - указаны атмосферные явления, наблюдавшиеся в срок или в последний час перед сроком; фигурными скобками обозначены явления, наблюдавшиеся между сроками (за 1-3 часа до срока); квадратными скобками обозначены град или гололедные отложения с указанием их диаметра в мм.
Облачность - указаны через наклонную черту общая и нижняя облачность в баллах и высота нижней границы облаков в метрах; квадратными скобками обозначены формы облаков: Ci - перистые, Cs - перисто-слоистые, Cc - перисто-кучевые, Ac - высококучевые, As - высокослоистые, Sc - слоисто-кучевые, Ns - слоисто-дождевые, Cu - кучевые, Cb - кучево-дождевые. Подробнее классификацию облаков см. в Атласе облаков (PDF).
T - Температура воздуха - температура, измеренная на высоте 2 м над землей.
Td - Температура точки росы - температура, при понижении до которой содержащийся в воздухе водяной пар достигнет насыщения.
f - Относительная влажность воздуха - влажноcть воздуха, измеренная на высоте 2 м над землей.
Te - Эффективная температура - температура, которую ощущает одетый по сезону человек в тени. Характеристика душности погоды. При расчете учитывается влияние влажности воздуха и скорости ветра на теплоощущения человека.
Tes - Эффективная температура на солнце - температура, которую ощущает человек, с поправкой на солнечный нагрев. Характеристика знойности погоды. Зависит от высоты солнца над горизонтом, облачности и скорости ветра. Ночью, в пасмурную погоду, а также при ветре 12 м/с и более поправка равна нулю.
P - Атмосферное давление - приведенное к уровню моря атмосферное давление.
Po - Атмосферное давление - измеренное на уровне метеостанции атмосферное давление.
Tmin - Минимальная температура - минимум температуры воздуха на высоте 2 м над землей.
Tmax - Максимальная температура - максимум температуры воздуха на высоте 2 м над землей.
R - Количество осадков - Количество выпавших осадков за период времени, мм. При наведении курсора мыши на число - период времени, за который выпало указанное количество осадков.
R24 - Количество осадков - Количество выпавших осадков за 24 часа, мм.
S - Снежный покров - Высота снежного покрова, см. При наведении курсора мыши на число - состояние снежного покрова и степень покрытия местности в баллах.